sat.trackr.live / text

‹ back to catalog

HEAD-3C

NORAD 57628 · 2023-121C

PAYLOAD ACTIVE UNKNOWN

§ Identity

Operator
Country
PRC
Launch date
2023-08-14
Launch site
XICLF
Launch vehicle
Mass (kg)
RCS (m²)

External: N2YO · Heavens-Above · Gunter

§ Orbital elements

Epoch: 2026-05-25T03:46:13.639584Z

Period
98.48 min
Inclination
44.9994°
Eccentricity
0.0005107
Mean motion
14.62209429 rev/d
Perigee alt
682.4 km
Apogee alt
689.7 km
Semi-major
7,064.2 km
B*
1.6430e-4
RAAN
52.8650°
Arg perigee
152.8276°
Mean anomaly
207.2850°
Rev number
14,836

§ Raw data

HEAD-3C1 57628U 23121C   26145.15710231  .00000674  00000+0  16430-3 0  99982 57628  44.9994  52.8650 0005107 152.8276 207.2850 14.62209429148364

JSON: /api/v1/satellites/57628 · /tle

For live sub-satellite position, see the globe view (requires WebGL).

§ Visibility from observer

Set your observer location to see the next 7 days of passes ≥ 10°. The values pass through the URL so the page stays shareable.

No JS? Fill the form by hand. The geolocation button needs JavaScript.